Weather History for Alamosa, CO

Change the Weather History Date:

Monday, October 22, 2012

  Actual Average Record
Temperature  
Mean Temperature 46 °F 41 °F  
Max Temperature 67 °F 59 °F 76 °F (2003)
Min Temperature 24 °F 22 °F -7 °F (1996)
Degree Days  
Heating Degree Days 19 24  
Month to date heating degree days 417 442  
Since 1 July heating degree days 773 873  
Cooling Degree Days 0 0  
Month to date cooling degree days 0 0  
Year to date cooling degree days 115 51  
Moisture  
Dew Point 22 °F    
Average Humidity 49    
Maximum Humidity 81    
Minimum Humidity 16    
Precipitation  
Precipitation 0.00 in 0.02 in 0.47 in (1969)
Month to date precipitation 0.37 0.49  
Year to date precipitation 4.69 6.35  
Snow  
Snow 0.00 in 0.10 in 0.10 in (1984)
Month to date snowfall 0.0 1.1  
Since 1 July snowfall 0.0 1.1  
Since 1 September snowfall 0.0 1.1  
Snow Depth 0.00 in    
Sea Level Pressure  
Sea Level Pressure 29.95 in    
Wind  
Wind Speed 9 mph (South)    
Max Wind Speed 24 mph    
Max Gust Speed 38 mph    
Visibility 10 miles    
Events      
T = Trace of Precipitation, MM = Missing Value Source: NWS Daily Summary

Daily Weather History Graph

Daily Weather History Graph

Search for Another Location

Airport:

Trip Planner

Search our weather history database for the weather conditions in past years. The results will help you decide how hot, cold, wet, or windy it might be!

Date:

Astronomy

Oct. 22, 2012 Rise Set
Actual Time 7:18 AM MDT 6:16 PM MDT
Civil Twilight 6:52 AM MDT 6:42 PM MDT
Nautical Twilight 6:21 AM MDT 7:13 PM MDT
Astronomical Twilight 5:51 AM MDT 7:43 PM MDT
Moon 2:18 PM MDT (10/22) 12:17 AM MDT (10/22)
Length of Visible Light 11h 50m
Length of Day
10h 57m
First Quarter, 57% of the Moon is Illuminated
Oct 22
First Quarter
Oct 29
Full
Nov 6
Last Quarter
Nov 13
New
Nov 20
First Quarter

Hourly Weather History & Observations

Time (MDT) Temp. Windchill Dew Point Humidity Pressure Visibility Wind Dir Wind Speed Gust Speed Precip Events Conditions
12:52 AM 33.1 °F 28.7 °F 21.9 °F 64% 29.89 in 10.0 mi East 4.6 mph - N/A   Clear
1:52 AM 30.0 °F 26.5 °F 21.0 °F 69% 29.90 in 10.0 mi SE 3.5 mph - N/A   Clear
2:52 AM 30.0 °F 25.2 °F 21.0 °F 69% 29.88 in 10.0 mi SSW 4.6 mph - N/A   Clear
3:52 AM 32.0 °F 26.4 °F 23.0 °F 69% 30.05 in 10.0 mi SW 5.8 mph - N/A   Clear
4:52 AM 30.9 °F - 23.0 °F 72% 29.90 in 10.0 mi Calm Calm - N/A   Clear
5:52 AM 24.8 °F 16.9 °F 19.4 °F 80% 30.05 in 10.0 mi East 6.9 mph - N/A   Clear
6:52 AM 24.8 °F 17.9 °F 19.4 °F 80% 30.07 in 10.0 mi West 5.8 mph - N/A   Clear
7:52 AM 30.0 °F 26.5 °F 21.9 °F 72% 30.04 in 10.0 mi SSW 3.5 mph - N/A   Clear
8:52 AM 41.0 °F 36.4 °F 26.1 °F 55% 29.99 in 10.0 mi South 6.9 mph - N/A   Clear
9:52 AM 50.0 °F - 28.4 °F 43% 30.09 in 10.0 mi South 4.6 mph - N/A   Clear
10:52 AM 55.4 °F - 28.4 °F 36% 30.08 in 10.0 mi SSE 4.6 mph - N/A   Clear
11:52 AM 59.0 °F - 21.9 °F 24% 29.91 in 10.0 mi SSW 9.2 mph 18.4 mph N/A   Clear
12:52 PM 62.1 °F - 21.9 °F 21% 29.88 in 10.0 mi South 13.8 mph 19.6 mph N/A   Clear
1:52 PM 64.4 °F - 17.6 °F 16% 29.98 in 10.0 mi WSW 11.5 mph - N/A   Clear
2:52 PM 66.0 °F - 19.9 °F 17% 29.81 in 10.0 mi SSW 18.4 mph 27.6 mph N/A   Clear
3:52 PM 64.9 °F - 18.0 °F 16% 29.80 in 10.0 mi SW 16.1 mph - N/A   Clear
4:52 PM 64.4 °F - 19.4 °F 18% 29.97 in 10.0 mi SW 23.0 mph 27.6 mph N/A   Clear
5:52 PM 59.0 °F - 19.0 °F 21% 29.88 in 10.0 mi WSW 19.6 mph - N/A   Clear
7:52 PM 43.0 °F 36.4 °F 21.9 °F 43% 29.99 in 10.0 mi SSW 12.7 mph - N/A   Clear
8:52 PM 44.1 °F 39.5 °F 23.0 °F 43% 29.94 in 10.0 mi SSW 8.1 mph - N/A   Clear
10:52 PM 37.9 °F 33.5 °F 23.0 °F 55% 29.91 in 10.0 mi ESE 5.8 mph - N/A   Clear
11:52 PM 35.6 °F 29.9 °F 23.0 °F 60% 30.04 in 10.0 mi ESE 6.9 mph - N/A   Clear